GW0206 Weather Reports


time (UTC)temp
C
wind
direction
speed
KPH
gust
KPH
rain 1hr
cm
rain 24hr
cm
rain mn
cm
humidity
%
barometer
mb
20260903023509 26 61 4.8 11.3 0.00 0.00 0.00 84 1016.2
20260903023028 26 37 4.8 14.5 0.00 0.00 0.00 84 1016.2
20260903022511 26 61 6.4 14.5 0.00 0.00 0.00 84 1016.1
20260903022015 26 51 6.4 12.9 0.00 0.00 0.00 84 1016.1
20260903021537 26 61 6.4 14.5 0.00 0.00 0.00 84 1016.2
20260903021018 26 52 4.8 14.5 0.00 0.00 0.00 84 1016.1
20260903020510 26 61 4.8 12.9 0.00 0.00 0.00 84 1016.2
20260903020006 26 72 6.4 11.3 0.00 0.00 0.00 84 1016.1
20260903015506 26 46 6.4 11.3 0.00 0.00 0.00 84 1016.2
20260903015003 26 63 4.8 12.9 0.00 0.00 0.00 83 1016.3
20260903014514 27 61 4.8 12.9 0.00 0.00 0.00 83 1016.2
20260903014008 27 77 4.8 12.9 0.00 0.00 0.00 82 1016.3
20260903013508 27 59 4.8 11.3 0.00 0.00 0.00 82 1016.3
20260903013013 27 74 4.8 11.3 0.00 0.00 0.00 82 1016.4
20260903012508 27 38 4.8 11.3 0.00 0.00 0.00 81 1016.4
20260903012013 27 53 4.8 9.7 0.00 0.00 0.00 81 1016.4
20260903011527 27 56 4.8 11.3 0.00 0.00 0.00 80 1016.3
20260903011006 27 55 4.8 11.3 0.00 0.00 0.00 80 1016.4
20260903010509 27 38 4.8 8.0 0.00 0.00 0.00 79 1016.4
20260903010033 27 63 3.2 9.7 0.00 0.00 0.00 79 1016.4
20260903005514 27 66 4.8 9.7 0.00 0.00 0.00 79 1016.2
20260903005007 27 360 4.8 8.0 0.00 0.00 0.00 78 1016.1
20260903004530 28 61 4.8 8.0 0.00 0.00 0.00 78 1016.1
20260903004003 28 66 4.8 8.0 0.00 0.00 0.00 77 1016.1
20260903003503 28 48 4.8 9.7 0.00 0.00 0.00 77 1016.0
20260903003018 28 51 3.2 9.7 0.00 0.00 0.00 76 1015.9
20260903002508 28 59 4.8 9.7 0.00 0.00 0.00 76 1015.8
20260903002008 28 53 4.8 9.7 0.00 0.00 0.00 75 1015.7
20260903001514 29 59 3.2 9.7 0.00 0.00 0.00 74 1015.6
20260903001009 29 59 4.8 9.7 0.00 0.00 0.00 74 1015.7
20260903000514 29 94 6.4 9.7 0.00 0.00 0.00 73 1015.6
20260903000030 30 50 6.4 11.3 0.00 0.00 0.00 73 1015.6
20260902235509 30 80 6.4 11.3 0.00 0.00 0.00 72 1015.7
20260902235014 30 43 4.8 9.7 0.00 0.00 0.00 72 1015.7
20260902234532 30 45 4.8 8.0 0.00 0.00 0.00 71 1015.8
20260902234007 30 59 4.8 8.0 0.00 0.00 0.00 71 1015.8
20260902233511 31 69 3.2 8.0 0.00 0.00 0.00 71 1015.8
20260902233031 31 36 3.2 6.4 0.00 0.00 0.00 70 1015.8
20260902232510 31 65 3.2 8.0 0.00 0.00 0.00 70 1015.8
20260902232012 31 46 3.2 9.7 0.00 0.00 0.00 69 1015.7
20260902231516 31 46 4.8 9.7 0.00 0.00 0.00 68 1015.8
20260902231009 31 33 3.2 11.3 0.00 0.00 0.00 68 1015.9
20260902230510 31 63 3.2 14.5 0.00 0.00 0.00 68 1015.9
20260902230024 32 67 4.8 14.5 0.00 0.00 0.00 67 1015.9
20260902225518 32 51 4.8 11.3 0.00 0.00 0.00 66 1016.0
20260902225012 32 30 4.8 9.7 0.00 0.00 0.00 67 1015.9
20260902224519 32 67 3.2 19.3 0.00 0.00 0.00 66 1015.8
20260902224013 32 41 6.4 19.3 0.00 0.00 0.00 65 1015.8
20260902223517 32 69 6.4 16.1 0.00 0.00 0.00 65 1015.7
20260902223032 32 63 6.4 17.7 0.00 0.00 0.00 67 1015.8
20260902222511 32 78 6.4 17.7 0.00 0.00 0.00 66 1015.7
20260902222012 32 74 6.4 17.7 0.00 0.00 0.00 65 1015.7
20260902221530 32 31 4.8 16.1 0.00 0.00 0.00 66 1015.7
20260902221017 32 46 6.4 16.1 0.00 0.00 0.00 66 1015.7
20260902220510 32 33 6.4 17.7 0.00 0.00 0.00 64 1015.7
20260902220023 32 64 6.4 17.7 0.00 0.00 0.00 65 1015.8
20260902215509 32 105 4.8 16.1 0.00 0.00 0.00 64 1015.8
20260902215009 32 75 8.0 20.9 0.00 0.00 0.00 63 1015.8
20260902214529 32 28 8.0 20.9 0.00 0.00 0.00 64 1015.9
20260902214015 32 68 6.4 20.9 0.00 0.00 0.00 63 1016.0
20260902213511 32 97 9.7 20.9 0.00 0.00 0.00 63 1016.0
20260902213026 32 55 9.7 20.9 0.00 0.00 0.00 61 1016.0
20260902212515 32 46 9.7 20.9 0.00 0.00 0.00 62 1016.1
20260902212016 32 53 8.0 24.1 0.00 0.00 0.00 61 1016.1
20260902211536 33 77 8.0 24.1 0.00 0.00 0.00 62 1016.2
20260902211017 33 63 9.7 19.3 0.00 0.00 0.00 60 1016.2
20260902210515 33 91 6.4 20.9 0.00 0.00 0.00 61 1016.2
20260902210039 33 60 9.7 20.9 0.00 0.00 0.00 59 1016.3
20260902205512 33 109 6.4 19.3 0.00 0.00 0.00 63 1016.3
20260902205012 33 19 8.0 19.3 0.00 0.00 0.00 62 1016.4
20260902204526 33 39 6.4 19.3 0.00 0.00 0.00 63 1016.4
20260902204014 33 38 6.4 19.3 0.00 0.00 0.00 63 1016.5
20260902203511 33 53 8.0 20.9 0.00 0.00 0.00 61 1016.5
20260902203027 33 36 6.4 20.9 0.00 0.00 0.00 62 1016.5
20260902202512 33 5 9.7 19.3 0.00 0.00 0.00 61 1016.6
20260902202014 33 53 4.8 22.5 0.00 0.00 0.00 60 1016.7
20260902201529 34 68 12.9 22.5 0.00 0.00 0.00 61 1016.7
20260902201019 34 67 8.0 17.7 0.00 0.00 0.00 61 1016.7
20260902200522 34 65 6.4 17.7 0.00 0.00 0.00 61 1016.8
20260902200025 34 49 6.4 14.5 0.00 0.00 0.00 61 1016.8
20260902195518 34 54 3.2 17.7 0.00 0.00 0.00 61 1016.8
20260902195017 34 69 4.8 19.3 0.00 0.00 0.00 61 1016.9
20260902194536 34 69 4.8 19.3 0.00 0.00 0.00 62 1016.9
20260902194016 34 59 8.0 17.7 0.00 0.00 0.00 60 1017.0
20260902193514 35 155 8.0 17.7 0.00 0.00 0.00 58 1017.0
20260902193028 34 98 6.4 17.7 0.00 0.00 0.00 58 1017.0
20260902192513 34 121 9.7 17.7 0.00 0.00 0.00 57 1017.1
20260902192003 34 55 9.7 16.1 0.00 0.00 0.00 59 1017.1
20260902191511 34 159 6.4 12.9 0.00 0.00 0.00 58 1017.3
20260902191003 34 90 1.6 12.9 0.00 0.00 0.00 62 1017.3
20260902190504 34 53 4.8 12.9 0.00 0.00 0.00 59 1017.2
20260902190012 34 43 4.8 17.7 0.00 0.00 0.00 59 1017.3
20260902185504 34 74 6.4 17.7 0.00 0.00 0.00 56 1017.3
20260902185001 34 72 4.8 12.9 0.00 0.00 0.00 58 1017.3
20260902184510 35 94 3.2 12.9 0.00 0.00 0.00 59 1017.3
20260902184004 34 84 3.2 12.9 0.00 0.00 0.00 58 1017.4
20260902183509 34 52 4.8 17.7 0.00 0.00 0.00 60 1017.4
20260902183003 33 145 4.8 17.7 0.00 0.00 0.00 59 1017.4
20260902182502 33 51 4.8 12.9 0.00 0.00 0.00 63 1017.4
20260902182004 33 330 3.2 14.5 0.00 0.00 0.00 61 1017.5
20260902181503 33 9 3.2 14.5 0.00 0.00 0.00 61 1017.6
20260902181003 33 67 6.4 14.5 0.00 0.00 0.00 62 1017.6
20260902180503 33 121 6.4 12.9 0.00 0.00 0.00 63 1017.9
20260902180010 33 86 3.2 14.5 0.00 0.00 0.00 63 1017.9
20260902175503 33 31 4.8 19.3 0.00 0.00 0.00 62 1017.9
20260902175006 33 71 11.3 19.3 0.00 0.00 0.00 63 1018.0
20260902174511 33 65 1.6 14.5 0.00 0.00 0.00 65 1018.0
20260902174007 33 109 6.4 14.5 0.00 0.00 0.00 67 1018.1
20260902173504 32 91 4.8 16.1 0.00 0.00 0.00 66 1018.0
20260902173010 32 68 8.0 16.1 0.00 0.00 0.00 65 1018.2
20260902172509 32 11 4.8 12.9 0.00 0.00 0.00 66 1018.2
20260902172013 32 115 3.2 14.5 0.00 0.00 0.00 64 1018.2
20260902171505 32 111 6.4 14.5 0.00 0.00 0.00 66 1018.2
20260902171005 32 134 4.8 14.5 0.00 0.00 0.00 64 1018.3
20260902170504 32 57 4.8 12.9 0.00 0.00 0.00 68 1018.4
20260902170004 32 63 6.4 14.5 0.00 0.00 0.00 67 1018.4
20260902165504 32 139 3.2 14.5 0.00 0.00 0.00 66 1018.4
20260902165004 32 105 4.8 16.1 0.00 0.00 0.00 65 1018.4
20260902164511 32 49 8.0 16.1 0.00 0.00 0.00 66 1018.4
20260902164004 32 121 4.8 16.1 0.00 0.00 0.00 67 1018.5
20260902163505 32 58 3.2 17.7 0.00 0.00 0.00 67 1018.5
20260902163020 32 67 4.8 17.7 0.00 0.00 0.00 68 1018.7
20260902162508 32 126 8.0 14.5 0.00 0.00 0.00 68 1018.6
20260902162003 31 40 3.2 11.3 0.00 0.00 0.00 70 1018.6
20260902161504 31 90 1.6 14.5 0.00 0.00 0.00 69 1018.7
20260902161002 31 49 6.4 14.5 0.00 0.00 0.00 68 1018.7
20260902160504 31 103 4.8 14.5 0.00 0.00 0.00 72 1018.7
20260902160003 30 63 8.0 14.5 0.00 0.00 0.00 73 1018.7
20260902155502 30 82 3.2 17.7 0.00 0.00 0.00 74 1018.8
20260902155003 30 82 6.4 17.7 0.00 0.00 0.00 73 1018.8
20260902154504 30 42 3.2 14.5 0.00 0.00 0.00 75 1018.9
20260902154002 30 55 6.4 14.5 0.00 0.00 0.00 75 1018.9
20260902153502 30 13 6.4 14.5 0.00 0.00 0.00 74 1018.9
20260902153006 30 105 6.4 12.9 0.00 0.00 0.00 74 1018.9
20260902152503 30 59 3.2 11.3 0.00 0.00 0.00 73 1018.9
20260902152003 30 78 6.4 14.5 0.00 0.00 0.00 74 1018.9
20260902151504 30 42 4.8 14.5 0.00 0.00 0.00 74 1018.9
20260902151004 30 67 6.4 14.5 0.00 0.00 0.00 74 1018.8
20260902150502 30 132 4.8 12.9 0.00 0.00 0.00 74 1018.8
20260902150005 30 95 4.8 12.9 0.00 0.00 0.00 75 1018.8
20260902145502 30 109 4.8 14.5 0.00 0.00 0.00 77 1018.7
20260902145006 29 91 4.8 16.1 0.00 0.00 0.00 79 1018.7
20260902144504 29 80 6.4 16.1 0.00 0.00 0.00 76 1018.6
20260902144004 28 89 8.0 16.1 0.00 0.00 0.00 78 1018.6
20260902143502 28 109 3.2 14.5 0.00 0.00 0.00 78 1018.6
20260902143005 28 84 6.4 16.1 0.00 0.00 0.00 78 1018.6
20260902142503 28 98 9.7 16.1 0.00 0.00 0.00 79 1018.5
20260902142003 28 60 8.0 14.5 0.00 0.00 0.00 81 1018.5
20260902141506 28 116 4.8 14.5 0.00 0.00 0.00 80 1018.5
20260902141002 28 67 8.0 12.9 0.00 0.00 0.00 79 1018.5
20260902140504 27 59 4.8 12.9 0.00 0.00 0.00 82 1018.4
20260902140004 27 53 4.8 12.9 0.00 0.00 0.00 82 1018.5
20260902135504 27 71 6.4 12.9 0.00 0.00 0.00 84 1018.5
20260902135004 26 38 6.4 12.9 0.00 0.00 0.00 85 1018.5
20260902134506 26 129 3.2 14.5 0.00 0.00 0.00 86 1018.5
20260902134003 26 52 6.4 14.5 0.00 0.00 0.00 87 1018.6
20260902133503 26 83 6.4 12.9 0.00 0.00 0.00 88 1018.5
20260902133007 25 54 3.2 12.9 0.00 0.00 0.00 89 1018.6
20260902132505 25 60 4.8 12.9 0.00 0.00 0.00 90 1018.6
20260902132003 25 64 4.8 12.9 0.00 0.00 0.00 92 1018.7
20260902131508 24 69 3.2 8.0 0.00 0.00 0.00 94 1018.7
20260902131004 23 72 3.2 8.0 0.00 0.00 0.00 95 1018.5
20260902130503 23 16 3.2 11.3 0.00 0.00 0.00 95 1018.4
20260902130006 23 80 4.8 11.3 0.00 0.00 0.00 97 1018.4
20260902125504 23 26 3.2 8.0 0.00 0.00 0.00 97 1018.4
20260902125004 22 51 3.2 8.0 0.00 0.00 0.00 97 1018.5
20260902124508 22 35 3.2 8.0 0.00 0.00 0.00 98 1018.4
20260902124005 22 56 4.8 6.4 0.00 0.00 0.00 98 1018.5
20260902123504 22 31 1.6 6.4 0.00 0.00 0.00 98 1018.4
20260902123007 22 36 3.2 6.4 0.00 0.00 0.00 98 1018.4
20260902122502 22 17 1.6 4.8 0.00 0.00 0.00 98 1018.5
20260902122002 22 15 1.6 4.8 0.00 0.00 0.00 98 1018.5
20260902121508 22 36 1.6 4.8 0.00 0.00 0.00 98 1018.5
20260902121003 22 17 0.0 3.2 0.00 0.00 0.00 98 1018.5
20260902120502 21 17 0.0 3.2 0.00 0.00 0.00 98 1018.4
20260902120008 21 17 0.0 6.4 0.00 0.00 0.00 98 1018.3
20260902115506 21 65 1.6 6.4 0.00 0.00 0.00 98 1018.2
20260902115006 21 26 1.6 4.8 0.00 0.00 0.00 98 1018.1
20260902114507 21 55 1.6 4.8 0.00 0.00 0.00 98 1018.0
20260902114002 21 44 1.6 4.8 0.00 0.00 0.00 98 1017.9
20260902113502 21 36 1.6 4.8 0.00 0.00 0.00 98 1018.0
20260902113008 21 36 1.6 4.8 0.00 0.00 0.00 98 1018.0
20260902112503 21 36 1.6 4.8 0.00 0.00 0.00 98 1017.9
20260902112003 21 38 1.6 4.8 0.00 0.00 0.00 97 1017.9
20260902111509 21 20 0.0 4.8 0.00 0.00 0.00 98 1017.8
20260902111002 21 39 0.0 3.2 0.00 0.00 0.00 97 1017.7
20260902110507 21 24 1.6 4.8 0.00 0.00 0.00 97 1017.6
20260902110008 21 24 0.0 4.8 0.00 0.00 0.00 97 1017.6
20260902105505 21 15 1.6 4.8 0.00 0.00 0.00 97 1017.5
20260902105003 21 349 1.6 4.8 0.00 0.00 0.00 97 1017.5
20260902104514 21 17 0.0 4.8 0.00 0.00 0.00 97 1017.5
20260902104006 21 15 1.6 4.8 0.00 0.00 0.00 97 1017.5
20260902103507 21 12 1.6 4.8 0.00 0.00 0.00 97 1017.4
20260902103015 21 46 1.6 4.8 0.00 0.00 0.00 97 1017.5
20260902102507 21 15 1.6 6.4 0.00 0.00 0.00 97 1017.5
20260902102005 21 13 1.6 6.4 0.00 0.00 0.00 97 1017.5
20260902101511 21 5 1.6 4.8 0.00 0.00 0.00 97 1017.5
20260902101007 21 22 1.6 4.8 0.00 0.00 0.00 97 1017.4
20260902100508 21 17 0.0 3.2 0.00 0.00 0.00 97 1017.5
20260902100011 21 17 0.0 3.2 0.00 0.00 0.00 97 1017.4
20260902095508 21 338 0.0 1.6 0.00 0.00 0.00 97 1017.5
20260902095007 21 338 0.0 4.8 0.00 0.00 0.00 97 1017.6
20260902094516 22 338 0.0 6.4 0.00 0.00 0.00 97 1017.6
20260902094009 22 20 0.0 6.4 0.00 0.00 0.00 97 1017.5
20260902093509 22 13 0.0 4.8 0.00 0.00 0.00 97 1017.6
20260902093017 22 5 1.6 6.4 0.00 0.00 0.00 97 1017.7
20260902092508 22 36 1.6 6.4 0.00 0.00 0.00 97 1017.7
20260902092008 22 30 1.6 6.4 0.00 0.00 0.00 97 1017.7
20260902091523 22 36 1.6 4.8 0.00 0.00 0.00 97 1017.8
20260902091008 22 13 1.6 4.8 0.00 0.00 0.00 97 1017.8
20260902090508 22 20 1.6 4.8 0.00 0.00 0.00 97 1017.7
20260902090020 22 17 1.6 6.4 0.00 0.00 0.00 97 1017.8
20260902085508 22 11 1.6 6.4 0.00 0.00 0.00 97 1017.8
20260902085008 22 329 1.6 6.4 0.00 0.00 0.00 97 1017.8
20260902084518 22 5 3.2 8.0 0.00 0.00 0.00 97 1017.8
20260902084009 22 19 1.6 8.0 0.00 0.00 0.00 97 1017.7
20260902083507 22 19 1.6 8.0 0.00 0.00 0.00 97 1017.6
20260902083030 22 14 3.2 8.0 0.00 0.00 0.00 97 1017.6
20260902082510 22 5 3.2 6.4 0.00 0.00 0.00 97 1017.6
20260902082010 22 32 1.6 6.4 0.00 0.00 0.00 97 1017.7
20260902081524 22 32 3.2 6.4 0.00 0.00 0.00 97 1017.6
20260902081010 22 31 3.2 6.4 0.00 0.00 0.00 97 1017.5
20260902080512 22 355 1.6 6.4 0.00 0.00 0.00 97 1017.5
20260902080030 22 352 1.6 6.4 0.00 0.00 0.00 97 1017.6
20260902075509 22 5 0.0 4.8 0.00 0.00 0.00 97 1017.6
20260902075010 22 348 1.6 6.4 0.00 0.00 0.00 97 1017.5
20260902074527 22 12 0.0 6.4 0.00 0.00 0.00 97 1017.5
20260902074009 22 19 1.6 8.0 0.00 0.00 0.00 97 1017.5
20260902073516 22 48 3.2 8.0 0.00 0.00 0.00 97 1017.6
20260902073025 22 17 1.6 8.0 0.00 0.00 0.00 97 1017.6
20260902072508 22 5 1.6 8.0 0.00 0.00 0.00 97 1017.5
20260902072008 22 5 0.0 6.4 0.00 0.00 0.00 97 1017.5
20260902071524 22 355 1.6 6.4 0.00 0.00 0.00 97 1017.6
20260902071009 22 5 1.6 6.4 0.00 0.00 0.00 97 1017.7
20260902070513 22 13 0.0 4.8 0.00 0.00 0.00 97 1017.7
20260902070027 22 352 0.0 4.8 0.00 0.00 0.00 97 1017.7
20260902065513 22 333 0.0 3.2 0.00 0.00 0.00 96 1017.7
20260902065008 22 333 0.0 4.8 0.00 0.00 0.00 96 1017.7
20260902064526 22 10 1.6 4.8 0.00 0.00 0.00 96 1017.7
20260902064009 22 355 1.6 4.8 0.00 0.00 0.00 96 1017.8
20260902063517 22 346 0.0 3.2 0.00 0.00 0.00 96 1017.9
20260902063023 22 329 0.0 4.8 0.00 0.00 0.00 96 1017.9
20260902062507 22 34 0.0 6.4 0.00 0.00 0.00 96 1017.8
20260902062010 22 308 0.0 6.4 0.00 0.00 0.00 96 1017.8
20260902061521 22 360 0.0 4.8 0.00 0.00 0.00 96 1017.9
20260902061010 22 30 1.6 4.8 0.00 0.00 0.00 96 1017.9
20260902060510 22 327 0.0 3.2 0.00 0.00 0.00 96 1017.9
20260902060025 22 22 0.0 4.8 0.00 0.00 0.00 96 1018.0
20260902055508 22 346 1.6 4.8 0.00 0.00 0.00 96 1017.9
20260902055012 22 346 1.6 4.8 0.00 0.00 0.00 96 1017.9
20260902054537 22 346 0.0 3.2 0.00 0.00 0.00 96 1017.9
20260902054015 22 346 0.0 3.2 0.00 0.00 0.00 96 1017.9
20260902053509 22 346 1.6 4.8 0.00 0.00 0.00 95 1017.9
20260902053031 22 346 1.6 4.8 0.00 0.00 0.00 95 1017.9
20260902052515 22 346 1.6 3.2 0.00 0.00 0.00 95 1017.8
20260902052012 22 346 0.0 3.2 0.00 0.00 0.00 95 1017.8
20260902051527 22 346 0.0 4.8 0.00 0.00 0.00 95 1017.7
20260902051008 22 346 0.0 4.8 0.00 0.00 0.00 95 1017.7
20260902050506 22 346 0.0 4.8 0.00 0.00 0.00 95 1017.6
20260902050033 22 340 0.0 4.8 0.00 0.00 0.00 95 1017.5
20260902045512 22 350 0.0 4.8 0.00 0.00 0.00 95 1017.7
20260902045012 22 350 0.0 4.8 0.00 0.00 0.00 95 1017.7
20260902044530 22 350 1.6 3.2 0.00 0.00 0.00 95 1017.5
20260902044010 22 350 0.0 3.2 0.00 0.00 0.00 95 1017.7
20260902043515 22 350 0.0 4.8 0.00 0.00 0.00 95 1017.6
20260902043029 22 33 0.0 4.8 0.00 0.00 0.00 94 1017.7
20260902042508 22 33 0.0 3.2 0.00 0.00 0.00 94 1017.7
20260902042014 23 33 0.0 4.8 0.00 0.00 0.00 94 1017.7
20260902041529 23 33 0.0 6.4 0.00 0.00 0.00 94 1017.7
20260902041016 23 32 1.6 6.4 0.00 0.00 0.00 94 1017.7
20260902040512 23 41 1.6 6.4 0.00 0.00 0.00 94 1017.5
20260902040029 23 66 1.6 4.8 0.00 0.00 0.00 94 1017.6
20260902035516 23 45 1.6 6.4 0.00 0.00 0.00 94 1017.8
20260902035010 23 19 3.2 6.4 0.00 0.00 0.00 94 1017.8
20260902034526 23 41 3.2 6.4 0.00 0.00 0.00 94 1017.7
20260902034013 23 19 1.6 4.8 0.00 0.00 0.00 94 1017.7
20260902033514 23 19 3.2 4.8 0.00 0.00 0.00 94 1017.7
20260902033026 23 19 1.6 4.8 0.00 0.00 0.00 93 1017.7
20260902032516 23 19 0.0 3.2 0.00 0.00 0.00 93 1017.6
20260902032020 23 19 1.6 4.8 0.00 0.00 0.00 93 1017.6
20260902031532 23 19 0.0 4.8 0.00 0.00 0.00 93 1017.7
20260902031012 23 19 0.0 4.8 0.00 0.00 0.00 93 1017.6
20260902030516 23 19 1.6 4.8 0.00 0.00 0.00 93 1017.6
20260902030032 23 19 1.6 4.8 0.00 0.00 0.00 93 1017.6
20260902025512 23 19 1.6 4.8 0.00 0.00 0.00 93 1017.7
20260902025014 23 19 0.0 4.8 0.00 0.00 0.00 93 1017.6
20260902024539 23 19 0.0 3.2 0.00 0.00 0.00 92 1017.6
20260902024018 23 19 0.0 3.2 0.00 0.00 0.00 92 1017.5